Location: Unspecified
(33.6682°S, 0.0000°E)
Time: 13:47:14
(UTC+00:00)

Courier 1B Rocket - All Passes

Search period start: 26 June 2019 00:00
Search period end: 06 July 2019 00:00
Orbit: 920 x 1202 km, 28.2° (Epoch: 25 June)

Date Brightness Start Highest point End Pass type
(mag) Time Alt. Az. Time Alt. Az. Time Alt. Az.
26 Jun - 13:05:06 10° NNW 13:10:15 25° NNE 13:15:38 10° ENE daylight
26 Jun - 14:56:45 10° WNW 15:03:09 49° NNE 15:10:02 10° E daylight
26 Jun - 16:49:39 10° W 16:56:28 56° N 17:03:48 10° ENE daylight
26 Jun - 18:43:08 10° W 18:49:50 39° NNW 18:56:52 10° NE visible
26 Jun - 20:38:10 10° WNW 20:42:56 18° NNW 20:47:45 10° N visible
27 Jun - 12:05:24 10° NNW 12:09:28 18° NNE 12:13:39 10° ENE daylight
27 Jun - 13:56:09 10° NW 14:02:12 41° NNE 14:08:39 10° E daylight
27 Jun - 15:48:46 10° WNW 15:55:23 56° N 16:02:31 10° ENE daylight
27 Jun - 17:42:01 10° W 17:48:44 46° NNW 17:55:54 10° ENE visible
27 Jun - 19:36:13 10° WNW 19:41:54 24° NNW 19:47:48 10° NNE visible
28 Jun - 11:06:49 10° NNE 11:08:44 11° NNE 11:10:40 10° NE daylight
28 Jun - 12:55:44 10° NW 13:01:19 32° NNE 13:07:13 10° E daylight
28 Jun - 14:47:58 10° WNW 14:54:20 53° N 15:01:13 10° E daylight
28 Jun - 16:41:01 10° W 16:47:39 51° N 16:54:46 10° ENE daylight
28 Jun - 18:34:44 10° W 18:40:52 30° NNW 18:47:20 10° NE visible
28 Jun - 20:31:46 10° NW 20:33:52 11° NNW 20:35:59 10° NNW visible
29 Jun - 11:55:34 10° NNW 12:00:32 24° NNE 12:05:39 10° ENE daylight
29 Jun - 13:47:14 10° WNW 13:53:22 48° N 13:59:55 10° E daylight
29 Jun - 15:40:06 10° W 15:46:36 55° N 15:53:35 10° ENE daylight
29 Jun - 17:33:30 10° W 17:39:51 37° NNW 17:46:36 10° NE visible
29 Jun - 19:28:33 10° WNW 19:32:53 17° NNW 19:37:22 10° N visible
30 Jun - 10:55:49 10° NNW 10:59:46 17° NNE 11:03:47 10° ENE daylight
30 Jun - 12:46:38 10° NW 12:52:29 40° NNE 12:58:37 10° E daylight
30 Jun - 14:39:14 10° WNW 14:45:35 55° N 14:52:22 10° ENE daylight
30 Jun - 16:32:27 10° W 16:38:49 44° NNW 16:45:39 10° ENE daylight
30 Jun - 18:26:37 10° WNW 18:31:55 22° NNW 18:37:26 10° NNE visible
01 Jul - 09:57:06 10° NNE 09:59:02 11° NNE 10:00:59 10° NE daylight
01 Jul - 11:46:11 10° NW 11:51:38 32° NNE 11:57:18 10° E daylight
01 Jul - 13:38:27 10° WNW 13:44:37 52° N 13:51:08 10° E daylight
01 Jul - 15:31:30 10° W 15:37:49 50° N 15:44:35 10° ENE daylight
01 Jul - 17:25:10 10° WNW 17:30:56 29° NNW 17:37:02 10° NE visible
01 Jul - 19:23:09 10° NW 19:23:53 10° NNW 19:24:35 10° NNW visible
02 Jul - 10:45:57 10° NNW 10:50:51 24° NNE 10:55:51 10° ENE daylight
02 Jul - 12:37:42 10° WNW 12:43:42 47° N 12:49:57 10° E daylight
02 Jul - 14:30:36 10° W 14:36:49 53° N 14:43:28 10° ENE daylight
02 Jul - 16:23:58 10° W 16:29:58 35° NNW 16:36:21 10° NE daylight
02 Jul - 18:19:07 10° WNW 18:22:56 15° NNW 18:26:52 10° N visible
03 Jul - 09:46:05 10° NNW 09:50:06 18° NNE 09:54:07 10° ENE daylight
03 Jul - 11:37:04 10° NW 11:42:50 40° NNE 11:48:45 10° E daylight
03 Jul - 13:29:44 10° WNW 13:35:53 54° N 13:42:20 10° ENE daylight
03 Jul - 15:22:57 10° W 15:29:01 42° NNW 15:35:28 10° NE daylight
03 Jul - 17:17:09 10° WNW 17:22:00 21° NNW 17:27:05 10° NNE daylight
04 Jul - 08:47:04 10° N 08:49:21 12° NNE 08:51:37 10° NE daylight
04 Jul - 10:36:32 10° NW 10:42:00 32° NNE 10:47:32 10° E daylight
04 Jul - 12:28:54 10° WNW 12:34:58 52° N 12:41:13 10° E daylight
04 Jul - 14:22:00 10° W 14:28:05 48° N 14:34:30 10° ENE daylight
04 Jul - 16:15:42 10° WNW 16:21:06 27° NNW 16:26:47 10° NNE daylight
05 Jul - 09:36:11 10° NNW 09:41:13 25° NNE 09:46:12 10° ENE daylight
05 Jul - 11:28:06 10° WNW 11:34:04 47° N 11:40:08 10° E daylight
05 Jul - 13:21:05 10° W 13:27:10 52° N 13:33:29 10° ENE daylight
05 Jul - 15:14:30 10° W 15:20:12 33° NNW 15:26:11 10° NE daylight
05 Jul - 17:09:53 10° WNW 17:13:04 14° NNW 17:16:21 10° N daylight
